Home > Weather > Laval > Past weeks

Flag for Canada Weather for the Past 2 Weeks in Laval, Quebec, Canada

Now
0 °F

Passing clouds.


Feels Like: -14 °F
Forecast: -3 / 16 °F
Wind: 7 mph from West

Location: Montreal / Mirabel

Current Time: Feb 11, 2016 at 8:53:10 PM

Latest Report: Feb 11, 2016 at 8:00 PM


Visibility: 15 mi

Pressure: 30.06 "Hg

Humidity: 65%

Dew point: -9 °F

Location of LavalLocation

Historic Weather in Laval — Graph

°F

Laval Temperature Yesterday

Maximum temperature yesterday: 23 °F (at 2:00 PM)
Minimum temperature yesterday: 18 °F (at 12:00 AM)
Average temperature yesterday: 19 °F

High & Low Weather Summary for the Past Weeks

 TemperatureHumidityPressure
High45 °F (Feb 1, 5:48 AM)100% (Jan 28, 9:00 PM)30.42 "Hg (Jan 28, 9:00 PM)
Low0 °F (Feb 11, 6:00 PM)41% (Feb 7, 2:00 PM)29.37 "Hg (Feb 1, 5:48 AM)
Average23 °F76%29.89 "Hg
* Reported Jan 27 7:00 PM — Feb 11 7:00 PM, Laval, Weather by CustomWeather, © 2016

Note: Actual official high and low records may vary slightly from our data, if they occured in-between our weather recording intervals... More about our weather records

Advertising

Laval Weather History for the Previous 24 Hours

 ConditionsComfort  
Time TempWeatherWind HumidityBarometerVisibility
7:00 PM
Thu, Feb 11
0 °FSnow flurries. Mostly cloudy.7 mph71%30.03 "Hg15 mi
6:00 PM0 °FPartly cloudy.8 mph60%30.00 "Hg15 mi
5:00 PM1 °FPartly sunny.8 mph55%29.96 "Hg15 mi
4:00 PM3 °FSnow flurries. More clouds than sun.10 mph55%29.93 "Hg8 mi
3:00 PM5 °FSnow flurries. More clouds than sun.7 mph55%29.89 "Hg5 mi
2:00 PM7 °FSnow flurries. Broken clouds.12 mph51%29.85 "Hg8 mi
1:54 PM9 °FSnow flurries. Mostly cloudy.12 mph47%29.85 "Hg10 mi
1:00 PM7 °FMostly cloudy.12 mph56%29.83 "Hg15 mi
12:00 PM9 °FMostly cloudy.12 mph51%29.82 "Hg15 mi
11:00 AM7 °FMostly cloudy.10 mph61%29.80 "Hg15 mi
10:00 AM7 °FCloudy.9 mph61%29.78 "Hg15 mi
9:00 AM7 °FBroken clouds.7 mph72%29.77 "Hg15 mi
8:00 AM7 °FLight snow. Overcast.5 mph85%29.75 "Hg3 mi
7:00 AM9 °FLight snow. Overcast.6 mph85%29.73 "Hg2 mi
6:00 AM10 °FLight snow. Overcast.6 mph85%29.72 "Hg6 mi
5:00 AM10 °FLight snow. Mostly cloudy.6 mph85%29.70 "Hg6 mi
4:00 AM10 °FLight snow. Overcast.6 mph85%29.69 "Hg10 mi
3:00 AM12 °FLight snow. Overcast.5 mph79%29.69 "Hg8 mi
2:00 AM14 °FLight snow. Mostly cloudy.5 mph79%29.67 "Hg8 mi
1:00 AM16 °FLight snow. Overcast.5 mph79%29.67 "Hg15 mi
12:00 AM16 °FLight snow. Mostly cloudy.5 mph86%29.66 "Hg15 mi
11:00 PM
Wed, Feb 10
18 °FLight snow. Mostly cloudy.3 mph86%29.65 "Hg15 mi
10:00 PM19 °FLight snow. Overcast.5 mph79%29.66 "Hg12 mi
9:00 PM21 °FLight snow. Mostly cloudy.6 mph80%29.65 "Hg15 mi
8:00 PM21 °FLight snow. Overcast.6 mph93%29.64 "Hg12 mi
Weather by CustomWeather, © 2016

See weather overviewHow to use our weather pages